Santa Monica, CA

5:06 AM PST on December 10, 2018 (GMT -0800)
Santa Monica Municipal

Weather History for KSMO - August, 2018

Change the Weather History Date:

Saturday, August 11, 2018

  Actual Average Record
Temperature  
Mean Temperature 76 °F -  
Max Temperature 82 °F 79 °F 96 °F (1935)
Min Temperature 71 °F 63 °F 53 °F (1950)
Cooling Degree Days 11    
Growing Degree Days 26 (Base 50)    
Moisture  
Dew Point 65 °F    
Average Humidity 70    
Maximum Humidity 82    
Minimum Humidity 50    
Precipitation  
Precipitation 0.00 in - - ()
Sea Level Pressure  
Sea Level Pressure 29.96 in    
Wind  
Wind Speed 4 mph (SW)    
Max Wind Speed 15 mph    
Max Gust Speed 26 mph    
Visibility 10 miles    
Events      
Averages and records for this station are not official NWS values.
T = Trace of Precipitation, MM = Missing Value Source: NWS Daily Summary

Daily Weather History Graph

Daily Weather History Graph

Search for Another Location

Airport or City:

Astronomy

Aug. 11, 2018 Rise Set
Actual Time 6:12 AM PDT 7:44 PM PDT
Civil Twilight 5:45 AM PDT 8:11 PM PDT
Nautical Twilight 5:13 AM PDT 8:43 PM PDT
Astronomical Twilight 4:40 AM PDT 9:16 PM PDT
Moon 6:25 AM PDT (8/11) 8:17 PM PDT (8/11)
Length of Visible Light 14h 25m
Length of Day
13h 32m
New Moon, 0% of the Moon is Illuminated
Aug 11
New Moon
Aug 18
First Quarter
Aug 26
Full
Sep 2
Last Quarter
Sep 9
New

Hourly Weather History & Observations

Time (PDT) Temp. Heat Index Dew Point Humidity Pressure Visibility Wind Dir Wind Speed Gust Speed Precip Events Conditions
12:51 AM 73.0 °F - 66.0 °F 79% 29.99 in 10.0 mi Calm Calm - N/A   Clear
1:51 AM 72.0 °F - 64.0 °F 76% 29.99 in 10.0 mi Calm Calm - N/A   Clear
2:51 AM 73.0 °F - 64.0 °F 73% 29.98 in 10.0 mi South 3.5 mph - N/A   Clear
3:51 AM 71.1 °F - 63.0 °F 75% 29.98 in 10.0 mi Calm Calm - N/A   Clear
4:51 AM 71.1 °F - 63.0 °F 75% 29.98 in 10.0 mi Calm Calm - N/A   Clear
5:51 AM 71.1 °F - 63.0 °F 75% 29.99 in 10.0 mi Calm Calm - N/A   Clear
6:51 AM 71.1 °F - 64.0 °F 78% 30.00 in 10.0 mi Calm Calm - N/A   Clear
7:51 AM 75.0 °F - 64.0 °F 69% 30.01 in 10.0 mi Calm Calm - N/A   Clear
8:51 AM 77.0 °F - 62.1 °F 60% 30.01 in 10.0 mi SE 4.6 mph - N/A   Clear
9:51 AM 79.0 °F - 63.0 °F 58% 30.01 in 10.0 mi SSE 5.8 mph - N/A   Clear
10:51 AM 80.1 °F 81.7 °F 64.0 °F 58% 30.01 in 10.0 mi SSW 8.1 mph - N/A   Clear
11:51 AM 80.1 °F 81.7 °F 64.0 °F 58% 29.98 in 10.0 mi SW 9.2 mph - N/A   Clear
12:51 PM 81.0 °F 82.7 °F 64.9 °F 58% 29.98 in 10.0 mi SW 9.2 mph - N/A   Clear
1:51 PM 81.0 °F 81.7 °F 61.0 °F 50% 29.96 in 10.0 mi WSW 11.5 mph - N/A   Clear
2:51 PM 79.0 °F - 66.0 °F 64% 29.94 in 10.0 mi SW 13.8 mph - N/A   Clear
3:51 PM 79.0 °F - 66.9 °F 66% 29.92 in 10.0 mi SW 15.0 mph - N/A   Clear
4:51 PM 78.1 °F - 66.0 °F 66% 29.90 in 10.0 mi WSW 13.8 mph 21.9 mph N/A   Clear
5:51 PM 77.0 °F - 66.9 °F 71% 29.88 in 10.0 mi WSW 13.8 mph 26.5 mph N/A   Clear
6:51 PM 75.9 °F - 68.0 °F 76% 29.88 in 10.0 mi WSW 12.7 mph - N/A   Clear
7:51 PM 73.9 °F - 68.0 °F 82% 29.90 in 10.0 mi WSW 9.2 mph - N/A   Clear
8:51 PM 73.0 °F - 66.9 °F 81% 29.93 in 10.0 mi WSW 8.1 mph - N/A   Clear
9:51 PM 73.0 °F - 64.9 °F 76% 29.96 in 10.0 mi SW 4.6 mph - N/A   Clear
10:51 PM 72.0 °F - 64.9 °F 78% 29.96 in 10.0 mi SW 5.8 mph - N/A   Clear
11:51 PM 71.1 °F - 64.0 °F 78% 29.96 in 10.0 mi SW 3.5 mph - N/A   Clear